map of RVN home
RVN - Airport
Location
City:  Rovaniemi, Lappi (Lappland, Lapland), Finland
ICAO:EFRO
IATA:RVN

Details
Type:Airport (Aerodrome, Airfield)
Latitude:6633'42"N (66.561667)
Longitude:2549'51"E (25.830833)
Elevation:645 ft (197 m)
Variation:11.45E (WMM2015 magnetic declination)
0.19 annual change
Runways:1
Longest:9849 × 197 ft (3002 × 60 m), paved

Time
Time Zone:UTC+2 (DST+3)
Local Time:

Weather
METAR:EFRO 251250Z AUTO 22006KT 2400 BR SCT001 BKN003 BKN005 08/08 Q1040
TAF:EFRO 251125Z 2512/2612 22006KT 5000 BR OVC003
TEMPO 2512/2515 0500 FG VV001
TEMPO 2515/2520 9999 BKN005
BECMG 2520/2522 0300 FG VV001
TEMPO 2522/2608 0800 VV002
BECMG 2608/2610 9999 BKN005

Related Locations
Nearby:
Farthest:NZTB: 11352 mi / 18269 km
Terra Nova Bay [Mario Zucchelli Station], AQ

Find:

   beyond  
but within

Other Information
Maps:
NOTAMs:
Links:
Sources:

  
flag of Finland   

Sectional Chart

Flight Planning
at skyvector.com

Satellite Image

Google Maps Satellite view

 

Copyright © 2004-2017 Karl L. Swartz. All rights reserved.
The Great Circle Mapper name and logo are trademarks of the Great Circle Mapper.
All other trademarks mentioned herein belong to their respective owners.
Please see credits for attibutions and further copyright information.

  Follow gcmap on Facebook Follow gcmap on Twitter Follow gcmap on Google+ GCmap on LinkedIn

hCard Microformat

Geo Microformat